GW1000 Weather Reports


Display with metric or nautical units.
time (UTC)temp
F
wind
direction
speed
MPH
gust
MPH
rain 1hr
in
rain 24hr
in
rain mn
in
humidity
%
barometer
mb
20260506051330 64 182 3.0 7.0 0.00 0.00 0.00 67 1013.2
20260506050828 64 244 4.0 8.0 0.00 0.00 0.00 66 1013.1
20260506050325 63 238 3.0 7.0 0.00 0.00 0.00 67 1013.3
20260506044816 63 291 4.0 8.0 0.00 0.00 0.00 68 1013.0
20260506044314 62 242 6.0 7.0 0.00 0.00 0.00 69 1012.9
20260506043810 62 235 5.0 7.0 0.00 0.00 0.00 70 1013.1
20260506043308 62 253 4.0 8.0 0.00 0.00 0.00 71 1012.9
20260506042806 62 239 5.0 8.0 0.00 0.00 0.00 72 1012.8
20260506042305 62 203 5.0 6.0 0.00 0.00 0.00 73 1012.9
20260506041803 61 210 3.0 5.0 0.00 0.00 0.00 74 1012.6
20260506041259 61 213 3.0 3.0 0.00 0.00 0.00 75 1012.9
20260506040757 60 245 3.0 5.0 0.00 0.00 0.00 75 1012.8
20260506040254 60 238 4.0 5.0 0.00 0.00 0.00 77 1012.8
20260506035750 60 149 1.0 2.0 0.00 0.00 0.00 78 1012.7
20260506035248 59 254 1.0 2.0 0.00 0.00 0.00 78 1012.7
20260506034744 59 27 0.0 1.0 0.00 0.00 0.00 79 1012.5
20260506034242 59 27 0.0 0.0 0.00 0.00 0.00 79 1012.8
20260506033739 59 27 0.0 1.0 0.00 0.00 0.00 79 1012.5
20260506033236 59 28 0.0 0.0 0.00 0.00 0.00 79 1012.3
20260506032732 59 28 0.0 0.0 0.00 0.00 0.00 79 1012.3
20260506032229 59 28 0.0 0.0 0.00 0.00 0.00 79 1012.2
20260506031726 59 27 1.0 1.0 0.00 0.00 0.00 79 1012.0
20260506031223 59 28 0.0 1.0 0.00 0.00 0.00 78 1012.1
20260506030721 59 28 0.0 1.0 0.00 0.00 0.00 78 1012.1
20260506030219 59 28 0.0 0.0 0.00 0.00 0.00 78 1012.2
20260506025715 59 28 0.0 1.0 0.00 0.00 0.00 78 1012.1
20260506025212 59 32 0.0 0.0 0.00 0.00 0.00 78 1012.0
20260506024709 59 52 1.0 1.0 0.00 0.00 0.00 78 1011.7
20260506024205 59 64 0.0 1.0 0.00 0.00 0.00 78 1011.9
20260506023701 59 93 0.0 0.0 0.00 0.00 0.00 78 1012.1
20260506023159 59 88 0.0 0.0 0.00 0.00 0.00 78 1012.0
20260506022655 59 86 0.0 1.0 0.00 0.00 0.00 77 1012.0
20260506022153 59 88 2.0 2.0 0.00 0.00 0.00 77 1012.2
20260506021651 59 65 1.0 2.0 0.00 0.00 0.00 77 1012.0
20260506021148 59 90 1.0 2.0 0.00 0.00 0.00 77 1011.9
20260506020640 59 115 1.0 2.0 0.00 0.00 0.00 77 1011.8
20260506020137 59 101 2.0 2.0 0.00 0.00 0.00 77 1012.0
20260506015635 59 80 0.0 2.0 0.00 0.00 0.00 77 1011.9
20260506015131 59 91 0.0 1.0 0.00 0.00 0.00 77 1011.9
20260506014629 59 96 1.0 2.0 0.00 0.00 0.00 77 1011.8
20260506014124 59 89 1.0 2.0 0.00 0.00 0.00 77 1011.8
20260506013623 59 107 3.0 3.0 0.00 0.00 0.00 77 1012.0
20260506013119 59 98 2.0 3.0 0.00 0.00 0.00 77 1011.8
20260506012615 59 113 2.0 3.0 0.00 0.00 0.00 77 1012.0
20260506012112 59 111 1.0 3.0 0.00 0.00 0.00 77 1012.0
20260506011610 59 114 3.0 3.0 0.00 0.00 0.00 77 1011.8
20260506011106 59 93 1.0 2.0 0.00 0.00 0.00 77 1011.7
20260506010605 59 88 1.0 1.0 0.00 0.00 0.00 77 1011.9
20260506005559 59 87 0.0 1.0 0.00 0.00 0.00 77 1011.9
20260506005055 59 87 0.0 0.0 0.00 0.00 0.00 77 1011.8
20260506004552 59 87 0.0 1.0 0.00 0.00 0.00 77 1011.8
20260506004048 59 86 0.0 1.0 0.00 0.00 0.00 77 1011.8
20260506003545 59 82 0.0 1.0 0.00 0.00 0.00 77 1011.9
20260506003041 59 60 0.0 0.0 0.00 0.00 0.00 77 1012.1
20260506002537 59 71 0.0 1.0 0.00 0.00 0.00 77 1012.0
20260506002033 59 62 0.0 1.0 0.00 0.00 0.00 77 1012.0
20260506001530 59 49 0.0 1.0 0.00 0.00 0.00 77 1011.9
20260506001027 59 68 0.0 2.0 0.00 0.00 0.00 77 1011.9
20260506000525 59 76 1.0 1.0 0.00 0.00 0.00 77 1012.2
20260506000022 58 74 0.0 1.0 0.00 0.00 0.00 77 1011.9
20260505235520 59 73 0.0 0.0 0.00 0.00 0.00 77 1012.1
20260505235016 58 74 0.0 0.0 0.00 0.00 0.00 77 1012.1
20260505234513 58 76 0.0 1.0 0.00 0.00 0.00 78 1012.2
20260505234010 58 68 0.0 1.0 0.00 0.00 0.00 77 1012.1
20260505233508 58 72 1.0 2.0 0.00 0.00 0.00 77 1012.0
20260505233005 58 64 0.0 1.0 0.00 0.00 0.00 77 1012.2
20260505232503 58 99 1.0 2.0 0.00 0.00 0.00 77 1012.1
20260505232000 59 105 2.0 3.0 0.00 0.00 0.00 77 1012.1
20260505231457 59 28 0.0 1.0 0.00 0.00 0.00 76 1012.2
20260505230955 59 75 0.0 0.0 0.00 0.00 0.00 76 1012.3
20260505230452 59 75 0.0 0.0 0.00 0.00 0.00 75 1012.3
20260505225948 59 75 0.0 0.0 0.00 0.00 0.00 75 1012.3
20260505225446 59 76 0.0 1.0 0.00 0.00 0.00 74 1012.3
20260505224942 59 88 1.0 1.0 0.00 0.00 0.00 74 1012.4
20260505224439 59 341 0.0 0.0 0.00 0.00 0.00 73 1012.5
20260505223936 60 341 0.0 0.0 0.00 0.00 0.00 73 1012.3
20260505223433 60 341 0.0 1.0 0.00 0.00 0.00 73 1012.4
20260505222929 60 341 0.0 1.0 0.00 0.00 0.00 73 1012.4
20260505222425 60 343 0.0 1.0 0.00 0.00 0.00 73 1012.6
20260505221921 60 340 0.0 1.0 0.00 0.00 0.00 73 1012.4
20260505221419 60 347 0.0 0.0 0.00 0.00 0.00 73 1012.5
20260505220916 60 346 0.0 1.0 0.00 0.00 0.00 73 1012.6
20260505220413 60 349 0.0 0.0 0.00 0.00 0.00 73 1012.5
20260505215911 60 348 0.0 1.0 0.00 0.00 0.00 73 1012.6
20260505215408 60 348 0.0 1.0 0.00 0.00 0.00 73 1012.7
20260505214906 60 347 0.0 1.0 0.00 0.00 0.00 73 1012.5
20260505214403 60 4 0.0 0.0 0.00 0.00 0.00 73 1012.5
20260505213900 60 340 0.0 1.0 0.00 0.00 0.00 73 1012.5
20260505213358 60 0 0.0 1.0 0.00 0.00 0.00 73 1012.7
20260505212854 61 359 0.0 1.0 0.00 0.00 0.00 74 1012.7
20260505212351 61 72 0.0 1.0 0.00 0.00 0.00 73 1012.7
20260505211847 61 45 0.0 0.0 0.00 0.00 0.00 74 1012.7
20260505211345 61 45 1.0 1.0 0.00 0.00 0.00 74 1012.6
20260505210841 61 327 1.0 1.0 0.00 0.00 0.00 74 1012.9
20260505210339 61 4 0.0 1.0 0.00 0.00 0.00 74 1012.9
20260505205835 61 1 0.0 1.0 0.00 0.00 0.00 74 1012.9
20260505205334 61 325 2.0 2.0 0.00 0.00 0.00 74 1012.8
20260505204830 61 4 1.0 1.0 0.00 0.00 0.00 73 1012.8
20260505204328 61 347 0.0 2.0 0.00 0.00 0.00 73 1012.6
20260505203825 61 332 1.0 2.0 0.00 0.00 0.00 73 1012.8
20260505203321 61 321 1.0 3.0 0.00 0.00 0.00 73 1013.0
20260505202818 61 263 4.0 5.0 0.00 0.00 0.00 73 1013.0
20260505202314 61 259 2.0 2.0 0.00 0.00 0.00 73 1012.8
20260505201811 61 275 2.0 3.0 0.00 0.00 0.00 73 1012.9
20260505201308 61 272 1.0 3.0 0.00 0.00 0.00 73 1012.7
20260505200807 61 293 2.0 5.0 0.00 0.00 0.00 73 1012.8
20260505200303 61 12 1.0 2.0 0.00 0.00 0.00 73 1012.8
20260505195758 61 349 1.0 3.0 0.00 0.00 0.00 73 1013.0
20260505195256 61 345 2.0 3.0 0.00 0.00 0.00 73 1012.8
20260505194753 61 346 1.0 2.0 0.00 0.00 0.00 73 1012.7
20260505194250 62 331 2.0 3.0 0.00 0.00 0.00 73 1012.6
20260505193745 62 326 3.0 6.0 0.00 0.00 0.00 73 1012.7
20260505193243 62 282 3.0 7.0 0.00 0.00 0.00 73 1012.9
20260505192741 62 285 6.0 10.0 0.00 0.00 0.00 73 1012.7
20260505192239 62 258 3.0 5.0 0.00 0.00 0.00 73 1012.7
20260505191737 61 280 3.0 5.0 0.00 0.00 0.00 73 1012.7
20260505191235 61 303 1.0 5.0 0.00 0.00 0.00 73 1012.7
20260505190731 61 269 3.0 3.0 0.00 0.00 0.00 73 1012.7
20260505190231 61 239 5.0 6.0 0.00 0.00 0.00 72 1012.7
20260505185728 61 316 2.0 3.0 0.00 0.00 0.00 72 1012.8
20260505185224 61 247 3.0 6.0 0.00 0.00 0.00 72 1012.6
20260505184720 61 258 3.0 5.0 0.00 0.00 0.00 71 1012.6
20260505184218 61 303 2.0 3.0 0.00 0.00 0.00 71 1012.8
20260505183714 61 247 3.0 3.0 0.00 0.00 0.00 71 1012.8
20260505183212 61 314 1.0 2.0 0.00 0.00 0.00 70 1012.7
20260505182708 61 247 4.0 5.0 0.00 0.00 0.00 70 1012.7
20260505182205 61 266 2.0 3.0 0.00 0.00 0.00 70 1012.8
20260505181701 61 317 1.0 2.0 0.00 0.00 0.00 70 1012.8
20260505181159 61 261 2.0 3.0 0.00 0.00 0.00 69 1012.7
20260505180655 61 304 2.0 5.0 0.00 0.00 0.00 69 1012.6
20260505180153 61 264 3.0 5.0 0.00 0.00 0.00 68 1012.5
20260505175648 61 302 2.0 3.0 0.00 0.00 0.00 68 1012.5
20260505175145 61 321 5.0 7.0 0.00 0.00 0.00 68 1012.5
20260505174642 61 252 4.0 8.0 0.00 0.00 0.00 68 1012.2
20260505174138 61 295 5.0 10.0 0.00 0.00 0.00 69 1012.5
20260505173635 62 338 3.0 5.0 0.00 0.00 0.00 69 1012.2
20260505173131 62 277 3.0 7.0 0.00 0.00 0.00 69 1012.3
20260505172629 62 295 2.0 5.0 0.00 0.00 0.00 69 1012.5
20260505172126 62 307 4.0 8.0 0.00 0.00 0.00 69 1012.4
20260505171620 62 247 7.0 8.0 0.00 0.00 0.00 69 1012.6
20260505171118 62 284 3.0 6.0 0.00 0.00 0.00 69 1012.5
20260505170615 62 279 3.0 6.0 0.00 0.00 0.00 69 1012.3
20260505170111 62 324 3.0 5.0 0.00 0.00 0.00 69 1012.3
20260505165606 62 265 3.0 6.0 0.00 0.00 0.00 68 1012.2
20260505165102 62 354 3.0 3.0 0.00 0.00 0.00 68 1012.2
20260505164558 62 263 4.0 8.0 0.00 0.00 0.00 68 1012.1
20260505164056 62 268 5.0 8.0 0.00 0.00 0.00 68 1012.1
20260505163554 62 319 5.0 7.0 0.00 0.00 0.00 67 1012.4
20260505163051 62 305 2.0 8.0 0.00 0.00 0.00 67 1012.1
20260505162544 62 300 4.0 7.0 0.00 0.00 0.00 67 1012.1
20260505162041 62 316 5.0 8.0 0.00 0.00 0.00 68 1012.3
20260505161538 62 258 5.0 9.0 0.00 0.00 0.00 68 1012.3
20260505161035 62 257 8.0 9.0 0.00 0.00 0.00 68 1012.3
20260505160533 62 354 3.0 8.0 0.00 0.00 0.00 68 1012.2
20260505153009 63 248 5.0 6.0 0.00 0.00 0.00 62 1012.2
20260505152506 62 248 4.0 11.0 0.00 0.00 0.00 62 1012.0
20260505152002 63 344 7.0 9.0 0.00 0.00 0.00 64 1012.1
20260505151457 63 246 7.0 8.0 0.00 0.00 0.00 65 1012.3
20260505150955 62 275 7.0 11.0 0.00 0.00 0.00 66 1012.1
20260505150452 63 331 5.0 11.0 0.00 0.00 0.00 66 1012.1
20260505140422 64 286 13.0 16.0 0.00 0.00 0.00 61 1011.7
20260505124829 66 280 12.0 21.0 0.00 0.00 0.00 58 1011.5
20260505124326 67 207 10.0 15.0 0.00 0.00 0.00 57 1011.5
20260505123822 65 302 12.0 16.0 0.00 0.00 0.00 61 1011.4
20260505123319 66 281 15.0 18.0 0.00 0.00 0.00 60 1011.5
20260505122815 66 274 9.0 15.0 0.00 0.00 0.00 58 1011.5
20260505122313 66 281 7.0 17.0 0.00 0.00 0.00 58 1011.7
20260505121809 66 283 9.0 18.0 0.00 0.00 0.00 58 1011.5
20260505121306 67 327 7.0 15.0 0.00 0.00 0.00 56 1011.5
20260505120802 68 238 7.0 13.0 0.00 0.00 0.00 55 1011.5
20260505120258 66 271 7.0 10.0 0.00 0.00 0.00 57 1011.4
20260505115757 66 274 12.0 21.0 0.00 0.00 0.00 58 1011.6
20260505115255 66 311 8.0 16.0 0.00 0.00 0.00 57 1011.6
20260505114752 67 249 7.0 15.0 0.00 0.00 0.00 56 1011.5
20260505114248 67 246 11.0 15.0 0.00 0.00 0.00 52 1011.7
20260505113745 67 293 12.0 14.0 0.00 0.00 0.00 52 1011.5
20260505113241 67 272 10.0 16.0 0.00 0.00 0.00 51 1011.4
20260505112737 67 283 11.0 15.0 0.00 0.00 0.00 50 1011.5
20260505112235 66 275 11.0 16.0 0.00 0.00 0.00 49 1011.4
20260505111735 67 275 9.0 17.0 0.00 0.00 0.00 49 1011.5
20260505111231 67 272 14.0 21.0 0.00 0.00 0.00 51 1011.5
20260505110727 67 256 9.0 18.0 0.00 0.00 0.00 52 1011.5
20260505110225 67 241 15.0 18.0 0.00 0.00 0.00 49 1011.4
20260505102200 68 228 9.0 16.0 0.00 0.00 0.00 51 1011.4
20260505101659 68 332 11.0 17.0 0.00 0.00 0.00 50 1011.6
20260505101154 68 273 14.0 18.0 0.00 0.00 0.00 50 1011.6
20260505100650 68 274 4.0 15.0 0.00 0.00 0.00 49 1011.5
20260505100148 66 259 9.0 11.0 0.00 0.00 0.00 53 1011.5
20260505095643 66 243 5.0 13.0 0.00 0.00 0.00 51 1011.5
20260505095141 66 302 5.0 8.0 0.00 0.00 0.00 52 1011.5
20260505094637 66 285 11.0 17.0 0.00 0.00 0.00 52 1011.8
20260505094133 67 258 7.0 11.0 0.00 0.00 0.00 51 1011.5
20260505093630 67 264 12.0 17.0 0.00 0.00 0.00 48 1011.6
20260505093127 66 250 9.0 16.0 0.00 0.00 0.00 52 1011.8
20260505092624 66 312 9.0 18.0 0.00 0.00 0.00 48 1011.8
20260505092123 66 256 10.0 17.0 0.00 0.00 0.00 50 1011.8
20260505091619 65 235 11.0 18.0 0.00 0.00 0.00 53 1011.7
20260505091118 65 239 11.0 18.0 0.00 0.00 0.00 52 1011.9
20260505090615 65 275 12.0 18.0 0.00 0.00 0.00 54 1011.9
20260505090114 66 255 10.0 18.0 0.00 0.00 0.00 56 1011.8
20260505085610 66 294 9.0 17.0 0.00 0.00 0.00 54 1011.6
20260505085108 65 272 9.0 15.0 0.00 0.00 0.00 53 1011.8
20260505084606 66 290 8.0 17.0 0.00 0.00 0.00 53 1011.7
20260505084104 66 312 11.0 15.0 0.00 0.00 0.00 53 1011.9
20260505083602 65 342 11.0 14.0 0.00 0.00 0.00 55 1011.7
20260505083058 66 256 8.0 15.0 0.00 0.00 0.00 55 1011.8
20260505082554 66 264 12.0 16.0 0.00 0.00 0.00 53 1011.5
20260505082051 66 280 8.0 14.0 0.00 0.00 0.00 51 1011.6
20260505081547 65 291 11.0 17.0 0.00 0.00 0.00 52 1011.5
20260505081044 64 257 11.0 15.0 0.00 0.00 0.00 55 1011.5
20260505080540 65 248 13.0 16.0 0.00 0.00 0.00 54 1011.6
20260505080037 65 282 10.0 15.0 0.00 0.00 0.00 56 1011.7
20260505075533 64 307 11.0 13.0 0.00 0.00 0.00 58 1011.6
20260505075030 64 293 9.0 14.0 0.00 0.00 0.00 59 1011.8
20260505074527 64 278 7.0 14.0 0.00 0.00 0.00 58 1011.5
20260505074024 66 264 9.0 17.0 0.00 0.00 0.00 58 1011.5
20260505073522 65 293 8.0 13.0 0.00 0.00 0.00 51 1011.5
20260505073020 65 346 10.0 16.0 0.00 0.00 0.00 52 1011.4
20260505072515 65 275 16.0 18.0 0.00 0.00 0.00 55 1011.5
20260505072012 65 264 6.0 15.0 0.00 0.00 0.00 58 1011.5
20260505071507 63 244 11.0 14.0 0.00 0.00 0.00 59 1011.7
20260505071006 64 268 14.0 16.0 0.00 0.00 0.00 60 1011.4
20260505070503 63 284 7.0 14.0 0.00 0.00 0.00 62 1011.5
20260505065958 63 298 10.0 17.0 0.00 0.00 0.00 63 1011.4
20260505065454 63 277 6.0 13.0 0.00 0.00 0.00 62 1011.4
20260505064951 63 269 15.0 17.0 0.00 0.00 0.00 61 1011.4
20260505064448 63 275 11.0 13.0 0.00 0.00 0.00 61 1011.5
20260505063947 63 244 7.0 11.0 0.00 0.00 0.00 63 1011.6
20260505063443 62 194 7.0 9.0 0.00 0.00 0.00 66 1011.4
20260505062939 61 245 6.0 10.0 0.00 0.00 0.00 68 1011.6
20260505062437 61 250 8.0 11.0 0.00 0.00 0.00 68 1011.5
20260505061933 62 250 7.0 10.0 0.00 0.00 0.00 65 1011.6
20260505061432 63 286 7.0 17.0 0.00 0.00 0.00 60 1011.2
20260505060929 63 249 8.0 9.0 0.00 0.00 0.00 60 1011.1
20260505060426 64 272 5.0 11.0 0.00 0.00 0.00 57 1011.1
20260505055922 63 255 6.0 10.0 0.00 0.00 0.00 58 1011.2
20260505055418 63 248 7.0 13.0 0.00 0.00 0.00 58 1011.3
20260505054914 63 239 11.0 18.0 0.00 0.00 0.00 58 1010.9
20260505054412 63 312 7.0 11.0 0.00 0.00 0.00 58 1011.1
20260505053910 63 241 10.0 14.0 0.00 0.00 0.00 58 1011.0
20260505053407 63 243 7.0 15.0 0.00 0.00 0.00 58 1010.9
20260505052903 63 311 5.0 13.0 0.00 0.00 0.00 59 1011.1
20260505052400 63 283 6.0 14.0 0.00 0.00 0.00 58 1010.8